Location: Melizzano
(41.1500°N, 14.5000°E)
Time: 21:24:55
(UTC+00:00)

SPOT 5 - Pass Details

Date: 11 May 2021
Orbit: 622 x 815 km, 98.2° (Epoch: 24 June)

Event Time Altitude Azimuth Distance (km) Brightness Sun altitude
Exits shadow 21:39:17 28° 253° (WSW) 1,424 4.4 -28.0°
Maximum altitude 21:39:53 28° 266° (W) 1,408 4.4 -28.0°
Drops below altitude 10° 21:44:22 10° 325° (NW) 2,368 6.4 -28.3°
Sets 21:47:04 0° 336° (NNW) 3,322 7.5 -28.5°
